Regional Weather Roundup
Issued by NWS Newport/Morehead, NC

Current Version | Previous Version | Graphics & Text | Print | Product List | Glossary On
Versions: 1 2 3 4 5 6 7 8 9 10 11 12 13 14 15 16 17 18 19 20 21 22 23 24 25 26 27 28 29 30 31 32 33 34 35 36 37 38 39 40 41 42 43 44 45 46 47 48 49 50
000 ASUS42 KMHX 241013 RWRMHX WEATHER ROUNDUP FOR EASTERN NORTH CAROLINA NATIONAL WEATHER SERVICE NEWPORT/MOREHEAD CITY NC 600 AM EDT SUN MAY 24 2015 NOTE: "FAIR" INDICATES FEW OR NO CLOUDS BELOW 12,000 FEET WITH NO SIGNIFICANT WEATHER AND/OR OBSTRUCTIONS TO VISIBILITY NCZ015>017-031-032-045>047-102-103-241100- NORTH COAST CITY SKY/WX TMP DP RH WIND PRES REMARKS EDENTON CLEAR 54 52 93 CALM 30.40S ELIZABETH CITY N/A 58 55 90 E6 30.41R KITTY HAWK SUNNY 60 53 77 E3 30.40S MANTEO CLEAR 60 53 75 E6 30.41S $$ NCZ045>047-081-094-103-104-241100- CENTRAL COAST CITY SKY/WX TMP DP RH WIND PRES REMARKS FRISCO CLEAR 61 56 83 NE6 30.40R SWANQUARTER N/A 59 N/A N/A NE3 30.36S $$ NCZ095-097-098-100-101-241100- SOUTHERN COAST CITY SKY/WX TMP DP RH WIND PRES REMARKS BEAUFORT CLEAR 60 60 100 NE3 30.39R CEDAR ISLAND N/A 70 N/A N/A E6 30.41S JACKSONVILLE CLEAR 63 59 87 E6 30.38R PINEY ISLAND SUNNY N/A N/A N/A E6 30.39R WILMINGTON CLEAR 60 58 92 CALM 30.38R $$ NCZ011>013-027>030-043-044-078>080-089-090>093-098-241100- COASTAL PLAIN CITY SKY/WX TMP DP RH WIND PRES REMARKS AHOSKIE CLEAR 49 48 95 CALM 30.41R CLINTON CLEAR 57 56 96 CALM 30.40R ELIZABETHTOWN CLEAR 56 56 99 CALM 30.38S GOLDSBORO CLEAR 55 52 90 CALM 30.38R GREENVILLE CLEAR 54 54 100 CALM 30.40R HAVELOCK CLEAR 58 53 84 CALM 30.40R KENANSVILLE CLEAR 52 51 95 CALM 30.41R KINSTON CLEAR 53 52 97 CALM 30.40S NEW BERN CLEAR 57 53 86 CALM 30.41R RICHLANDS CLEAR 54 48 82 CALM 30.40R ROCKY MOUNT CLEAR 53 52 96 CALM 30.40R WASHINGTON CLEAR 54 51 90 CALM 30.40R WHITEVILLE CLEAR 57 55 95 CALM 30.37S $$ AMZ130-135-150-152-154-156-158-170-250-252-270-ANZ085-086-088-633-658-670-241100- MARINE OBSERVATIONS STATION/POSITION TIME TEMP WIND PRES WAVE SWELL AIR SEA DIR/SP/G HT/PER HT/PER (UTC) (F) (DEG/KT/KT) (MB) (FT/S) (FT/S) CHESAPEAKE LIGHT 0900 60 160/ 11/ 11 1030.2 64 E VA BEACH 0950 61 60 110/ 6/ 6 1029.6 2/ 6 2/ 6 DUCK 0900 62 64 100/ 9/ 10 1028.6 2 E DUCK 0911 63 N/A 2/ 6 OREGON INLET 0900 63 67 60/ 8/ 10 1029.4 13E OREGON INLT 1000 63 N/A 2/ 6 HATTERAS CG 0900 65 73 60/ 5/ 7 1028.5 DIAMOND BUOY 0950 72 77 130/ 4/ 6 1029.1 2/ 8 2/ 8 CAPE LOOKOUT 1000 72 110/ 5/ 5 1028.7 BEAUFORT LAB 0900 65 74 40/ 4/ 5 1027.9 27 SE WRIGHTSVLE 0900 71 77 110/ 10/ 12 N/A 5 SE WRIGHTSVLE 0908 74 76 140/ 10/ 16 1028.1 225 S CAPE HAT 0950 72 74 70/ 19/ 21 1026.7 7/ 7 41 SE CHARLESTON 0950 74 75 100/ 14/ 17 1026.4 5/ 6 2/ 7 $$

USA.gov is the U.S. government's official web portal to all federal, state and local government web resources and services.